This demonstration page uses our WeatherBlox Daily Observations layout. Learn more.

Left ArrowRight Arrow

39.92423, -83.80882

Hourly Observations for September 13, 2015

Temp ( °F °C ) Dew Point ( °F °C ) Humidity (%) Winds ( mph kmh ) Pressure ( in mb ) Visibility ( mi km ) Precip ( " mm )
12:56 am 00:56 Partly Cloudy 50 10 48 8.8 92 92 W 6 9 29.96 1015 10 16.0934 0 0
1:56 am 01:56 Mostly Cloudy 50 10 49 9.4 96 96 WNW 7 11 29.97 1015 10 16.0934 0 0
2:56 am 02:56 Mostly Cloudy 50 10 48 8.8 92 92 NW 8 13 29.96 1015 10 16.0934 0 0
3:56 am 03:56 Mostly Cloudy 50 10 48 8.8 92 92 NW 6 9 29.96 1015 10 16.0934 0 0
4:56 am 04:56 Cloudy 51 10.5 49 9.4 93 93 NW 7 11 29.97 1015 10 16.0934 0 0
5:56 am 05:56 Mostly Cloudy 51 10.5 49 9.4 93 93 NW 5 7 29.98 1015 10 16.0934 0 0
6:56 am 06:56 Cloudy 50 10 49 9.4 96 96 WNW 7 11 29.99 1016 10 16.0934 0 0
7:56 am 07:56 Mostly Cloudy 49 9.4 49 9.4 100 100 NW 5 7 30.03 1017 10 16.0934 0 0
8:56 am 08:56 Cloudy 52 11.1 51 10.5 96 96 W 6 9 30.04 1017 10 16.0934 0 0
9:56 am 09:56 Mostly Cloudy 56 13.3 50 10 81 81 WNW 7 11 30.04 1017 10 16.0934 0 0
10:56 am 10:56 Sunny 62 16.6 49 9.4 63 63 WNW 14 22 30.05 1018 10 16.0934 0 0
11:56 am 11:56 Partly Cloudy 62 16.6 46 7.7 56 56 WNW 13 20 30.06 1018 10 16.0934 0 0
12:56 pm 12:56 Partly Cloudy 65 18.3 44 6.6 47 47 WNW 15 24 30.06 1018 10 16.0934 0 0
1:56 pm 13:56 Mostly Sunny 66 18.8 45 7.2 47 47 WNW 12 19 30.05 1018 10 16.0934 0 0
2:56 pm 14:56 Mostly Sunny 67 19.4 42 5.5 40 40 NW 8 13 30.05 1018 10 16.0934 0 0
3:56 pm 15:56 Partly Cloudy 68 20 42 5.5 39 39 NNW 9 15 30.04 1017 10 16.0934 0 0
4:56 pm 16:56 Mostly Sunny 66 18.8 42 5.5 42 42 NW 8 13 30.04 1017 10 16.0934 0 0
5:56 pm 17:56 Mostly Cloudy 67 19.4 44 6.6 43 43 NW 9 15 30.04 1017 10 16.0934 0 0
6:56 pm 18:56 Partly Cloudy 65 18.3 46 7.7 50 50 WSW 5 7 30.04 1017 10 16.0934 0 0
7:56 pm 19:56 Clear 58 14.4 48 8.8 69 69 WSW 3 6 30.05 1018 10 16.0934 0 0
8:56 pm 20:56 Clear 54 12.2 48 8.8 80 80 SW 5 7 30.07 1018 10 16.0934 0 0
9:56 pm 21:56 Clear 51 10.5 47 8.3 86 86 SSW 6 9 30.09 1019 10 16.0934 0 0
10:56 pm 22:56 Clear 51 10.5 47 8.3 86 86 SSW 5 7 30.09 1019 10 16.0934 0 0
11:56 pm 23:56 Clear 51 10.5 47 8.3 86 86 SSW 5 7 30.1 1019 10 16.0934 0 0

Powered by AerisWeather